Home   Weather   Gibraltar   Past weeks
Flag for Gibraltar

Past Weather in Gibraltar, Gibraltar — Yesterday and Last 2 Weeks

Now
61 °F

Passing clouds.


Feels Like: 61 °F
Forecast: 64 / 54 °F
Wind: 9 mph from Southeast

Location: Gibraltar Airport

Current Time: Mar 29, 2020 at 6:22:23 pm

Latest Report: Mar 29, 2020 at 5:50 pm


Visibility: N/A

Pressure: 30.04 "Hg

Humidity: 72%

Dew Point: 52 °F

Location of GibraltarLocation

Past Weather in Gibraltar — Graph

°F

Gibraltar Temperature Yesterday

Maximum temperature yesterday: 63 °F (at 11:50 am)
Minimum temperature yesterday: 52 °F (at 4:50 am)
Average temperature yesterday: 58 °F

High & Low Weather Summary for the Past Weeks

 TemperatureHumidityPressure
High68 °F (Mar 26, 3:20 pm)94% (Mar 15, 10:50 pm)30.12 "Hg (Mar 15, 10:50 pm)
Low50 °F (Mar 17, 5:50 am)39% (Mar 16, 1:50 pm)29.74 "Hg (Mar 24, 3:50 am)
Average59 °F77%29.96 "Hg
* Reported Mar 14 3:21 pm — Mar 29 4:50 pm, Gibraltar. Weather by CustomWeather, © 2020

Note: Actual official high and low records may vary slightly from our data, if they occured in-between our weather recording intervals... More about our weather records

Gibraltar Weather History for the Previous 24 Hours

Scroll right to see more
 ConditionsComfort  
Time TempWeatherWind HumidityBarometerVisibility
4:50 pm
Sun, Mar 29
63 °FPartly sunny.8 mph68%30.04 "HgN/A
3:50 pm63 °FPartly sunny.7 mph68%30.07 "HgN/A
3:20 pm63 °FPartly sunny.7 mph64%30.07 "HgN/A
2:50 pm61 °FPartly sunny.7 mph68%30.09 "HgN/A
2:20 pm61 °FPartly sunny.7 mph72%30.09 "HgN/A
1:50 pm61 °FScattered clouds.6 mph72%30.09 "HgN/A
1:20 pm61 °FBroken clouds.7 mph72%30.09 "HgN/A
12:50 pm61 °FScattered clouds.7 mph72%30.09 "HgN/A
12:20 pm61 °FBroken clouds.7 mph77%30.09 "HgN/A
11:50 am61 °FBroken clouds.7 mph72%30.12 "HgN/A
11:21 am61 °FScattered clouds.7 mph72%30.09 "HgN/A
10:50 am61 °FScattered clouds.7 mph72%30.09 "HgN/A
10:20 am59 °FScattered clouds.7 mph77%30.09 "HgN/A
9:50 am57 °FPartly sunny.7 mph82%30.09 "HgN/A
9:20 am57 °FScattered clouds.6 mph82%30.09 "HgN/A
8:50 am59 °FScattered clouds.9 mph72%30.09 "HgN/A
7:50 am59 °FPassing clouds.9 mph77%30.07 "HgN/A
6:50 am59 °FPassing clouds.12 mph77%30.07 "HgN/A
5:50 am59 °FPassing clouds.12 mph77%30.07 "HgN/A
4:50 am59 °FPassing clouds.16 mph72%30.09 "HgN/A
3:50 am59 °FPassing clouds.16 mph77%30.09 "HgN/A
1:50 am59 °FClear.20 mph72%30.09 "HgN/A
12:50 am59 °FPassing clouds.18 mph77%30.12 "HgN/A
11:50 pm
Sat, Mar 28
59 °FPassing clouds.18 mph77%30.12 "HgN/A
10:50 pm61 °FPartly cloudy.18 mph72%30.09 "HgN/A
9:50 pm59 °FPassing clouds.18 mph82%30.09 "HgN/A
8:50 pm59 °FPassing clouds.20 mph77%30.07 "HgN/A
7:50 pm61 °FPassing clouds.16 mph72%30.07 "HgN/A
6:50 pm59 °FPartly sunny.16 mph72%30.04 "HgN/A
Weather by CustomWeather, © 2020

See weather overview

Advertising